Weather History for Troy, AL

Change the Weather History Date:

Tuesday, March 26, 2013

  Actual Average Record
Temperature  
Mean Temperature 41 °F 58 °F  
Max Temperature 51 °F 72 °F 86 °F (2007)
Min Temperature 30 °F 45 °F 28 °F (2006)
Degree Days  
Heating Degree Days 24 7  
Month to date heating degree days 376 249  
Since 1 July heating degree days 1982 2168  
Cooling Degree Days 0 1  
Month to date cooling degree days 3 6  
Year to date cooling degree days 23 11  
Moisture  
Dew Point 23 °F    
Average Humidity 55    
Maximum Humidity 75    
Minimum Humidity 34    
Precipitation  
Precipitation 0.00 in 0.25 in 0.75 in (2009)
Month to date precipitation 3.03 4.92  
Year to date precipitation 18.32 14.05  
Snow  
Snow 0.00 in - - ()
Month to date snowfall 0.0  
Since 1 July snowfall 0.0  
Snow Depth 0.00 in    
Sea Level Pressure  
Sea Level Pressure 30.26 in    
Wind  
Wind Speed 9 mph (NW)    
Max Wind Speed 24 mph    
Max Gust Speed 31 mph    
Visibility 10 miles    
Events      
T = Trace of Precipitation, MM = Missing Value Source: NWS Daily Summary

Daily Weather History Graph

Daily Weather History Graph

Search for Another Location

Airport:

Trip Planner

Search our weather history database for the weather conditions in past years. The results will help you decide how hot, cold, wet, or windy it might be!

Date:

Astronomy

Mar. 26, 2013 Rise Set
Actual Time 6:39 AM CDT 6:59 PM CDT
Civil Twilight 6:15 AM CDT 7:24 PM CDT
Nautical Twilight 5:46 AM CDT 7:52 PM CDT
Astronomical Twilight 5:17 AM CDT 8:21 PM CDT
Moon 6:35 PM CDT (3/26) 5:54 AM CDT (3/26)
Length of Visible Light 13h 08m
Length of Day
12h 20m
Waxing Gibbous, 99% of the Moon is Illuminated
Mar 26
Waxing Gibbous
Mar 27
Full
Apr 2
Last Quarter
Apr 10
New
Apr 18
First Quarter

Hourly Weather History & Observations

Time (CDT) Temp. Windchill Dew Point Humidity Pressure Visibility Wind Dir Wind Speed Gust Speed Precip Events Conditions
12:53 AM 35.1 °F 29.3 °F 21.9 °F 59% 30.19 in 10.0 mi NNW 6.9 mph - N/A   Clear
1:53 AM 33.1 °F 30.0 °F 21.9 °F 64% 30.19 in 10.0 mi NW 3.5 mph - N/A   Clear
2:53 AM 32.0 °F 28.7 °F 21.9 °F 66% 30.19 in 10.0 mi WNW 3.5 mph - N/A   Clear
3:53 AM 32.0 °F 26.4 °F 21.9 °F 66% 30.18 in 10.0 mi WNW 5.8 mph - N/A   Clear
4:53 AM 32.0 °F 27.5 °F 21.0 °F 64% 30.19 in 10.0 mi WNW 4.6 mph - N/A   Clear
5:53 AM 30.9 °F 26.2 °F 21.9 °F 69% 30.22 in 10.0 mi West 4.6 mph - N/A   Clear
6:53 AM 30.0 °F 26.5 °F 23.0 °F 75% 30.24 in 10.0 mi West 3.5 mph - N/A   Clear
7:53 AM 33.1 °F 25.5 °F 24.1 °F 70% 30.26 in 10.0 mi WNW 9.2 mph - N/A   Clear
8:53 AM 37.9 °F 30.0 °F 23.0 °F 55% 30.27 in 10.0 mi NNW 12.7 mph 21.9 mph N/A   Clear
9:53 AM 41.0 °F 32.8 °F 24.1 °F 51% 30.28 in 10.0 mi NW 16.1 mph 21.9 mph N/A   Partly Cloudy
10:53 AM 42.1 °F 33.6 °F 21.0 °F 43% 30.29 in 10.0 mi NNW 18.4 mph 21.9 mph N/A   Mostly Cloudy
11:53 AM 46.0 °F 39.0 °F 21.0 °F 37% 30.27 in 10.0 mi NW 17.3 mph 21.9 mph N/A   Partly Cloudy
12:53 PM 46.0 °F 40.2 °F 21.0 °F 37% 30.27 in 10.0 mi NW 12.7 mph 20.7 mph N/A   Partly Cloudy
1:53 PM 48.9 °F - 23.0 °F 36% 30.26 in 10.0 mi WNW 12.7 mph 28.8 mph N/A   Scattered Clouds
2:53 PM 48.0 °F - 21.9 °F 36% 30.25 in 10.0 mi NNW 12.7 mph 19.6 mph N/A   Mostly Cloudy
3:53 PM 48.9 °F - 21.9 °F 35% 30.25 in 10.0 mi WNW 17.3 mph 24.2 mph N/A   Clear
4:53 PM 48.0 °F - 21.9 °F 36% 30.26 in 10.0 mi NNW 12.7 mph 23.0 mph N/A   Partly Cloudy
5:53 PM 46.9 °F - 21.9 °F 37% 30.27 in 10.0 mi North 16.1 mph 23.0 mph N/A   Clear
6:53 PM 43.0 °F 38.2 °F 23.0 °F 45% 30.29 in 10.0 mi NNW 8.1 mph - N/A   Clear
7:53 PM 39.0 °F 34.8 °F 24.1 °F 55% 30.31 in 10.0 mi NNW 5.8 mph - N/A   Clear
8:53 PM 37.0 °F 31.6 °F 25.0 °F 62% 30.33 in 10.0 mi NNW 6.9 mph - N/A   Clear
9:53 PM 36.0 °F 31.1 °F 24.1 °F 62% 30.35 in 10.0 mi NNW 5.8 mph - N/A   Clear
10:53 PM 34.0 °F 31.0 °F 26.1 °F 73% 30.35 in 10.0 mi NW 3.5 mph - N/A   Clear
11:53 PM 32.0 °F 28.7 °F 25.0 °F 75% 30.35 in 10.0 mi NNW 3.5 mph - N/A   Clear